Tracking 30166 objects as of 22-Jan-2025
HD Live streaming from Space Station
objects crossing your sky now

STARLINK-32644

Track STARLINK-32644 now!
10-day predictions
STARLINK-32644 is classified as:


NORAD ID: 62151
Int'l Code: 2024-224N
Perigee: 475.7 km
Apogee: 477.7 km
Inclination: 43.0 °
Period: 94.0 minutes
Semi major axis: 6847 km
RCS: Unknown
Launch date: November 30, 2024
Source: (USA)
Launch site: AIR FORCE EASTERN TEST RANGE (AFETR)
Your satellite tracking list
Your tracking list is empty




NASA's NSSDC Master Catalog

Two Line Element Set (TLE):
1 62151U 24224N   25022.20954274  .00000007  00000-0  89130-5 0  9996
2 62151  42.9961 329.3466 0001513 267.5472  92.5208 15.32093579  9463
Source of the keplerian elements: AFSPC